Location: Austin
(30.3000°N, 97.7500°W)
Time: 04:08:00
(UTC-06:00)

ATLAS 5 CENTAUR R/B - Pass Details

Date: 20 November 2023
Orbit: 432 x 1181 km, 63.3° (Epoch: 28 November)

Event Time Altitude Azimuth Distance (km) Brightness Sun altitude
Rises 19:27:00 0° 341° (NNW) 3,204 5.3 -24.6°
Reaches altitude 10° 19:29:22 10° 349° (N) 2,392 4.6 -25.1°
Enters shadow 19:31:44 24° 6° (N) 1,703 3.6 -25.6°
